�������l�o���
Date,Time,MP-1(��Sv/h),MP-2(��Sv/h),MP-3(��Sv/h),MP-4(��Sv/h),MP-5(��Sv/h),MP-6(��Sv/h),MP-7(��Sv/h),MP-8(��Sv/h),����,����(m/s),���J
2023/09/28,00:00,0.509,0.770,0.476,0.966,0.685,0.314,0.558,0.522,�k�k��,3.8,�L
2023/09/28,00:10,0.508,0.769,0.478,0.964,0.684,0.314,0.558,0.520,�k,3.6,�L
2023/09/28,00:20,0.509,0.767,0.478,0.965,0.684,0.314,0.559,0.522,�k�k��,3.6,�L
2023/09/28,00:30,0.509,0.769,0.477,0.964,0.686,0.315,0.559,0.523,�k�k��,3.6,�L
2023/09/28,00:40,0.508,0.770,0.480,0.963,0.683,0.314,0.559,0.522,�k��,3.8,�L
2023/09/28,00:50,0.508,0.767,0.480,0.963,0.684,0.316,0.559,0.523,�k�k��,2.9,�L
2023/09/28,01:00,0.508,0.767,0.478,0.964,0.685,0.316,0.561,0.524,�k,2.8,�L
2023/09/28,01:10,0.508,0.766,0.479,0.964,0.684,0.316,0.560,0.523,�k,2.6,�L
2023/09/28,01:20,0.510,0.768,0.479,0.962,0.686,0.317,0.561,0.523,�k�k��,3.2,�L
2023/09/28,01:30,0.509,0.768,0.480,0.963,0.686,0.317,0.560,0.522,�k��,2.9,�L
2023/09/28,01:40,0.510,0.768,0.481,0.962,0.687,0.317,0.560,0.524,�k��,2.8,�L
2023/09/28,01:50,0.513,0.768,0.485,0.959,0.687,0.318,0.559,0.523,�k��,3.0,�L
2023/09/28,02:00,0.513,0.772,0.486,0.961,0.688,0.318,0.560,0.524,�k��,3.3,�L
2023/09/28,02:10,0.515,0.771,0.483,0.962,0.686,0.319,0.561,0.524,���k��,2.8,�L
2023/09/28,02:20,0.512,0.772,0.485,0.962,0.687,0.318,0.559,0.523,�k��,3.6,�L
2023/09/28,02:30,0.512,0.770,0.484,0.960,0.686,0.317,0.561,0.522,�k��,2.8,�L
2023/09/28,02:40,0.512,0.769,0.481,0.961,0.687,0.317,0.559,0.524,�k��,2.8,�L
2023/09/28,02:50,0.512,0.768,0.481,0.961,0.686,0.318,0.561,0.523,�k��,3.3,�L
2023/09/28,03:00,0.511,0.768,0.481,0.958,0.686,0.316,0.558,0.523,�k�k��,3.9,�L
2023/09/28,03:10,0.509,0.767,0.480,0.960,0.685,0.318,0.560,0.523,�k�k��,4.5,�L
2023/09/28,03:20,0.511,0.767,0.483,0.960,0.687,0.320,0.559,0.523,�k�k��,4.2,�L
2023/09/28,03:30,0.511,0.766,0.482,0.958,0.685,0.320,0.561,0.523,�k�k��,3.9,�L
2023/09/28,03:40,0.511,0.767,0.481,0.959,0.684,0.319,0.560,0.526,�k��,3.9,�L
2023/09/28,03:50,0.512,0.767,0.481,0.958,0.683,0.319,0.559,0.524,�k��,3.2,�L
2023/09/28,04:00,0.509,0.766,0.481,0.958,0.685,0.318,0.560,0.525,�k��,3.3,�L
2023/09/28,04:10,0.508,0.766,0.481,0.956,0.684,0.318,0.560,0.523,�k��,3.6,�L
2023/09/28,04:20,0.509,0.765,0.480,0.955,0.684,0.317,0.561,0.523,�k��,3.0,�L
2023/09/28,04:30,0.509,0.765,0.479,0.955,0.683,0.317,0.560,0.523,�k��,2.0,�L
2023/09/28,04:40,0.507,0.765,0.479,0.957,0.686,0.318,0.558,0.525,�k��,2.6,��
2023/09/28,04:50,0.508,0.767,0.477,0.956,0.684,0.317,0.557,0.522,�k��,3.6,��
2023/09/28,05:00,0.507,0.766,0.476,0.955,0.683,0.316,0.558,0.523,�k��,3.2,��
2023/09/28,05:10,0.507,0.765,0.476,0.956,0.682,0.317,0.557,0.523,�k��,3.4,��
2023/09/28,05:20,0.508,0.765,0.475,0.955,0.684,0.315,0.558,0.524,�k��,3.7,��
2023/09/28,05:30,0.506,0.769,0.475,0.957,0.683,0.316,0.558,0.522,�k��,3.6,��
2023/09/28,05:40,0.506,0.766,0.476,0.955,0.683,0.316,0.559,0.523,�k��,3.3,��
2023/09/28,05:50,0.506,0.767,0.475,0.955,0.684,0.315,0.559,0.522,�k��,2.0,��
2023/09/28,06:00,0.507,0.767,0.476,0.954,0.684,0.314,0.559,0.524,�k��,1.7,��
2023/09/28,06:10,0.508,0.767,0.475,0.955,0.683,0.314,0.560,0.522,�k�k��,1.9,��
2023/09/28,06:20,0.505,0.767,0.476,0.955,0.683,0.314,0.559,0.525,�k��,2.3,��
2023/09/28,06:30,0.506,0.766,0.477,0.957,0.683,0.312,0.560,0.523,�k�k��,2.6,��
2023/09/28,06:40,0.506,0.769,0.476,0.957,0.683,0.313,0.560,0.522,�k�k��,1.9,��
2023/09/28,06:50,0.507,0.765,0.476,0.955,0.683,0.314,0.559,0.524,�k�k��,2.3,��
2023/09/28,07:00,0.506,0.765,0.474,0.956,0.684,0.314,0.559,0.523,�k�k��,2.3,��
2023/09/28,07:10,0.505,0.766,0.475,0.958,0.684,0.313,0.558,0.523,�k�k��,2.3,��
2023/09/28,07:20,0.506,0.767,0.476,0.958,0.683,0.313,0.560,0.523,�k�k��,1.5,��
2023/09/28,07:30,0.507,0.766,0.476,0.955,0.683,0.313,0.559,0.521,�k�k��,1.5,��
2023/09/28,07:40,0.505,0.766,0.477,0.958,0.684,0.314,0.560,0.524,�k�k��,1.5,��
2023/09/28,07:50,0.506,0.763,0.474,0.956,0.684,0.314,0.560,0.524,�k�k��,0.8,��
2023/09/28,08:00,0.505,0.764,0.477,0.957,0.683,0.313,0.560,0.523,�쓌,0.9,��
2023/09/28,08:10,0.507,0.764,0.476,0.954,0.684,0.313,0.559,0.524,���쐼,0.6,��
2023/09/28,08:20,0.506,0.765,0.475,0.959,0.683,0.313,0.561,0.522,��쐼,0.6,��
2023/09/28,08:30,0.507,0.765,0.475,0.955,0.684,0.313,0.560,0.523,��쓌,0.8,��
2023/09/28,08:40,0.506,0.767,0.476,0.958,0.683,0.313,0.559,0.524,�쓌,1.9,��
2023/09/28,08:50,0.508,0.767,0.476,0.958,0.683,0.312,0.560,0.523,�쓌,2.0,��
2023/09/28,09:00,0.508,0.766,0.476,0.954,0.683,0.313,0.560,0.523,�쓌,2.2,��
2023/09/28,09:10,0.509,0.768,0.476,0.957,0.684,0.312,0.559,0.523,�쓌,2.6,��
2023/09/28,09:20,0.509,0.768,0.474,0.957,0.684,0.315,0.560,0.523,���쓌,2.6,��
2023/09/28,09:30,0.508,0.769,0.476,0.957,0.684,0.314,0.561,0.525,��쓌,3.7,��
2023/09/28,09:40,0.510,0.770,0.478,0.958,0.686,0.313,0.561,0.525,��,3.1,��
2023/09/28,09:50,0.508,0.770,0.477,0.958,0.685,0.314,0.561,0.525,��쓌,5.1,��
2023/09/28,10:00,0.510,0.769,0.477,0.958,0.685,0.313,0.561,0.523,��쓌,4.7,��
2023/09/28,10:10,0.510,0.772,0.477,0.957,0.685,0.314,0.561,0.524,��,4.9,��
2023/09/28,10:20,0.510,0.771,0.476,0.960,0.685,0.308,0.562,0.525,��,5.1,��
2023/09/28,10:30,0.509,0.772,0.476,0.958,0.688,0.306,0.561,0.524,��,3.8,��
2023/09/28,10:40,0.511,0.773,0.477,0.959,0.686,0.307,0.563,0.524,��쓌,2.8,��
2023/09/28,10:50,0.510,0.771,0.478,0.959,0.688,0.311,0.562,0.526,��,2.8,��
2023/09/28,11:00,0.513,0.772,0.480,0.959,0.687,0.315,0.564,0.526,��쓌,3.6,��
2023/09/28,11:10,0.511,0.775,0.480,0.959,0.689,0.316,0.564,0.525,�쓌,3.9,��
2023/09/28,11:20,0.512,0.773,0.480,0.961,0.688,0.316,0.562,0.527,��쓌,5.2,��
2023/09/28,11:30,0.512,0.774,0.480,0.958,0.691,0.314,0.563,0.524,��쓌,6.7,��
2023/09/28,11:40,0.513,0.774,0.481,0.962,0.690,0.317,0.564,0.525,��쓌,5.7,��
2023/09/28,11:50,0.513,0.776,0.482,0.959,0.691,0.317,0.562,0.526,��쓌,4.8,��
2023/09/28,12:00,0.512,0.776,0.479,0.962,0.692,0.317,0.564,0.524,��쓌,4.7,��
2023/09/28,12:10,0.514,0.777,0.481,0.959,0.691,0.318,0.565,0.525,��쓌,5.8,��
2023/09/28,12:20,0.513,0.777,0.481,0.962,0.694,0.317,0.564,0.525,��,4.9,��
2023/09/28,12:30,0.516,0.779,0.482,0.961,0.692,0.319,0.564,0.526,��,4.8,��
2023/09/28,12:40,0.513,0.778,0.480,0.962,0.693,0.319,0.565,0.525,��,3.0,��
2023/09/28,12:50,0.514,0.778,0.485,0.961,0.693,0.319,0.564,0.526,�쐼,1.5,��
2023/09/28,13:00,0.515,0.779,0.483,0.963,0.694,0.320,0.566,0.527,���k��,2.9,��
2023/09/28,13:10,0.516,0.778,0.483,0.962,0.694,0.318,0.564,0.526,�k��,2.0,��
2023/09/28,13:20,0.515,0.778,0.483,0.964,0.694,0.319,0.566,0.528,��,3.6,��
2023/09/28,13:30,0.515,0.777,0.483,0.963,0.694,0.318,0.565,0.527,��,5.6,��
2023/09/28,13:40,0.514,0.779,0.484,0.964,0.694,0.318,0.565,0.527,���k��,5.2,��
2023/09/28,13:50,0.516,0.779,0.483,0.966,0.693,0.319,0.566,0.527,���쐼,3.4,��
2023/09/28,14:00,0.514,0.781,0.483,0.965,0.693,0.318,0.567,0.528,��,2.6,��
2023/09/28,14:10,0.515,0.780,0.483,0.965,0.693,0.320,0.568,0.527,��,3.7,��
2023/09/28,14:20,0.515,0.780,0.483,0.966,0.692,0.318,0.567,0.528,�k��,3.6,��
2023/09/28,14:30,0.516,0.782,0.481,0.963,0.696,0.317,0.565,0.528,���k��,5.7,��
2023/09/28,14:40,0.515,0.780,0.485,0.967,0.695,0.319,0.566,0.527,���k��,6.1,��
2023/09/28,14:50,0.516,0.782,0.485,0.969,0.695,0.318,0.567,0.528,��,5.9,��
2023/09/28,15:00,0.516,0.782,0.486,0.969,0.696,0.319,0.566,0.529,���쐼,5.5,��
2023/09/28,15:10,0.519,0.781,0.485,0.969,0.695,0.318,0.567,0.530,��,6.1,��
2023/09/28,15:20,0.518,0.781,0.486,0.969,0.697,0.319,0.569,0.528,��,8.2,��
2023/09/28,15:30,0.518,0.782,0.484,0.969,0.696,0.318,0.566,0.529,��,6.0,��
2023/09/28,15:40,0.518,0.784,0.486,0.969,0.698,0.319,0.567,0.528,��,6.3,��
2023/09/28,15:50,0.516,0.780,0.484,0.970,0.700,0.320,0.566,0.528,���쐼,7.9,��
2023/09/28,16:00,0.519,0.784,0.486,0.968,0.698,0.319,0.565,0.527,���쐼,5.4,��
2023/09/28,16:10,0.518,0.780,0.485,0.966,0.697,0.319,0.566,0.528,���쐼,4.0,��
2023/09/28,16:20,0.518,0.781,0.485,0.969,0.697,0.320,0.566,0.529,��,4.1,��
2023/09/28,16:30,0.518,0.783,0.486,0.970,0.697,0.319,0.566,0.528,��,5.6,��
2023/09/28,16:40,0.520,0.782,0.486,0.970,0.697,0.317,0.567,0.529,���쐼,5.0,��
2023/09/28,16:50,0.520,0.781,0.485,0.971,0.700,0.318,0.566,0.530,���쐼,4.6,��
2023/09/28,17:00,0.520,0.782,0.486,0.972,0.696,0.319,0.566,0.528,���k��,4.9,��
2023/09/28,17:10,0.517,0.783,0.485,0.973,0.696,0.317,0.567,0.527,�k��,6.9,�L
2023/09/28,17:20,0.517,0.783,0.485,0.973,0.696,0.320,0.565,0.528,�k��,5.6,�L
2023/09/28,17:30,0.516,0.782,0.484,0.972,0.697,0.316,0.566,0.530,�k��,8.1,�L
2023/09/28,17:40,0.519,0.783,0.485,0.971,0.695,0.317,0.567,0.529,���k��,7.4,�L
2023/09/28,17:50,0.518,0.782,0.484,0.970,0.698,0.317,0.566,0.529,��,9.2,��
2023/09/28,18:00,0.516,0.784,0.484,0.971,0.695,0.317,0.568,0.529,��,9.5,��
2023/09/28,18:10,0.516,0.783,0.484,0.969,0.697,0.318,0.567,0.529,�k��,6.1,��
2023/09/28,18:20,0.515,0.782,0.484,0.971,0.696,0.317,0.567,0.531,�k��,5.8,��
2023/09/28,18:30,0.516,0.783,0.485,0.971,0.698,0.317,0.567,0.531,�k��,6.9,��
2023/09/28,18:40,0.516,0.784,0.484,0.974,0.699,0.318,0.569,0.530,���k��,6.6,��
2023/09/28,18:50,0.517,0.784,0.485,0.972,0.698,0.316,0.567,0.531,���k��,6.2,��
2023/09/28,19:00,0.516,0.785,0.485,0.972,0.699,0.318,0.567,0.531,�k��,6.5,��
2023/09/28,19:10,0.517,0.786,0.485,0.972,0.698,0.317,0.566,0.531,�k��,4.5,��
2023/09/28,19:20,0.517,0.785,0.486,0.974,0.698,0.319,0.569,0.530,���k��,5.4,��
2023/09/28,19:30,0.517,0.786,0.486,0.974,0.698,0.316,0.568,0.530,���k��,5.8,��
2023/09/28,19:40,0.518,0.787,0.485,0.973,0.701,0.318,0.567,0.532,���k��,4.8,��
2023/09/28,19:50,0.516,0.785,0.486,0.972,0.699,0.319,0.568,0.530,�k��,2.9,��
2023/09/28,20:00,0.518,0.784,0.486,0.972,0.700,0.318,0.566,0.531,�k��,4.2,��
2023/09/28,20:10,0.516,0.786,0.484,0.973,0.701,0.318,0.566,0.531,�k��,3.8,��
2023/09/28,20:20,0.518,0.785,0.484,0.974,0.699,0.318,0.566,0.532,�k��,6.0,��
2023/09/28,20:30,0.517,0.784,0.486,0.975,0.700,0.317,0.567,0.532,���k��,6.5,��
2023/09/28,20:40,0.518,0.786,0.486,0.975,0.701,0.317,0.565,0.531,�k��,7.4,��
2023/09/28,20:50,0.517,0.786,0.486,0.974,0.700,0.318,0.566,0.531,�k��,5.3,��
2023/09/28,21:00,0.518,0.786,0.487,0.974,0.699,0.319,0.567,0.531,���k��,4.8,�L
2023/09/28,21:10,0.518,0.785,0.487,0.974,0.700,0.318,0.565,0.530,���k��,4.0,��
2023/09/28,21:20,0.518,0.784,0.485,0.974,0.700,0.318,0.567,0.531,�k��,2.3,��
2023/09/28,21:30,0.518,0.786,0.485,0.973,0.698,0.318,0.567,0.531,��,1.2,��
2023/09/28,21:40,0.518,0.786,0.487,0.975,0.702,0.317,0.568,0.531,���k��,2.3,��
2023/09/28,21:50,0.518,0.786,0.486,0.975,0.699,0.317,0.567,0.530,���k��,3.4,��
2023/09/28,22:00,0.517,0.786,0.487,0.973,0.699,0.318,0.568,0.531,�k��,2.3,��
2023/09/28,22:10,0.517,0.787,0.487,0.975,0.700,0.318,0.567,0.530,�k��,3.8,��
2023/09/28,22:20,0.518,0.788,0.486,0.974,0.700,0.318,0.567,0.531,�k��,4.9,��
2023/09/28,22:30,0.518,0.784,0.486,0.975,0.699,0.318,0.567,0.531,�k�k��,3.0,��
2023/09/28,22:40,0.519,0.785,0.486,0.974,0.700,0.319,0.568,0.530,�k�k��,2.8,��
2023/09/28,22:50,0.517,0.785,0.487,0.976,0.698,0.319,0.567,0.531,�k�k��,2.8,��
2023/09/28,23:00,0.519,0.785,0.486,0.976,0.701,0.318,0.568,0.530,�k�k��,2.8,��
2023/09/28,23:10,0.518,0.787,0.486,0.976,0.700,0.318,0.569,0.531,�k��,3.7,��
2023/09/28,23:20,0.522,0.787,0.486,0.975,0.700,0.317,0.567,0.530,�k�k��,3.3,��
2023/09/28,23:30,0.518,0.788,0.486,0.975,0.699,0.319,0.566,0.531,�k�k��,4.5,��
2023/09/28,23:40,0.518,0.786,0.487,0.974,0.698,0.318,0.566,0.531,�k�k��,5.4,��
2023/09/28,23:50,0.518,0.785,0.486,0.977,0.700,0.318,0.567,0.530,�k�k��,5.3,��
